This is the latest recevied weather packets stored in our database for station/object W1REE. If no packets are shown the sender has not sent any weather packets the latest 10 day(s).
| Time | Temp. | Humidity | Pressure | Rain* | Wind** | Luminosity | Snow |
|---|---|---|---|---|---|---|---|
| 1777649834 | 7.78° C | 53% | 1023.2 hPa | 0 mm | - | 522 W/m² | - |
| 1777649531 | 7.78° C | 53% | 1023.2 hPa | 0 mm | - | 522 W/m² | - |
| 1777649227 | 7.78° C | 55% | 1023.2 hPa | 0 mm | - | 512 W/m² | - |
| 1777648925 | 8.89° C | 53% | 1023.4 hPa | 0 mm | - | 454 W/m² | - |
| 1777648622 | 8.89° C | 56% | 1023.2 hPa | 0 mm | - | 637 W/m² | - |
| 1777648318 | 10° C | 52% | 1023.4 hPa | 0 mm | - | 659 W/m² | - |
| 1777648015 | 8.89° C | 58% | 1023.1 hPa | 0 mm | - | 771 W/m² | - |
| 1777647711 | 7.78° C | 63% | 1023.4 hPa | 0 mm | - | 680 W/m² | - |
| 1777647407 | 8.33° C | 64% | 1023.1 hPa | 0 mm | - | 740 W/m² | - |
| 1777647105 | 8.33° C | 63% | 1023.2 hPa | 0 mm | - | 525 W/m² | - |
| 1777646801 | 8.33° C | 59% | 1023.2 hPa | 0 mm | - | 406 W/m² | - |
| 1777646496 | 8.33° C | 58% | 1023.4 hPa | 0 mm | - | 410 W/m² | - |
| 1777646192 | 8.89° C | 58% | 1023.4 hPa | 0 mm | - | 671 W/m² | - |
| 1777645890 | 8.33° C | 63% | 1023.2 hPa | 0 mm | - | 658 W/m² | - |
| 1777645587 | 7.22° C | 66% | 1023.4 hPa | 0 mm | - | 417 W/m² | - |
| 1777645283 | 6.11° C | 67% | 1023.4 hPa | 0 mm | - | 228 W/m² | - |
| 1777644979 | 6.67° C | 66% | 1023.1 hPa | 0 mm | - | 176 W/m² | - |
| 1777644677 | 6.11° C | 69% | 1023.4 hPa | 0 mm | - | 141 W/m² | - |
| 1777644373 | 6.11° C | 75% | 1023.2 hPa | 0 mm | - | 123 W/m² | - |
| 1777644070 | 5° C | 77% | 1023.2 hPa | 0 mm | - | 108 W/m² | - |
| 1777643766 | 5.56° C | 71% | 1023.1 hPa | 0 mm | - | 101 W/m² | - |
| 1777643464 | 5° C | 79% | 1023.1 hPa | 0 mm | - | 126 W/m² | - |
| 1777643160 | 3.89° C | 76% | 1023 hPa | 0 mm | - | 134 W/m² | - |
| 1777642856 | 3.89° C | 80% | 1023.4 hPa | 0 mm | - | 128 W/m² | - |
| 1777642554 | 3.89° C | 86% | 1023.2 hPa | 0 mm | - | 123 W/m² | - |
* Rain latest hour (hover to see other rain measurements)
** Current wind speed in m/s (hover to see current wind gust speed)